When you browse on this site, cookies collect data to enhance your experience and personalize the content and advertising you see.
Visit our Privacy Policy to learn more. By continuing to use the site, you agree to this use of cookies and data.
  • In Österreich
  • Länderverzeichnis
  • Für 7 Tage
  • Wassertemperatur
  • Wetterkarte
  • News
  • Widgets
  • user-avatar
    Anmelden

    Stündliche Wetter Sutatausa

    Heute, 23 November, Samstag

    Zeit Temperatur Niederschläge Wind Luftdruck Luftfeuchtigkeit
    00:00 +8°C° 0.1 mm 0 m/S 547 mmHg 94%
    01:00 +8°C° 0.1 mm 0 m/S 546 mmHg 94%
    02:00 +8°C° 0 mm 0 m/S 546 mmHg 94%
    03:00 +8°C° 0 mm 0 m/S 546 mmHg 94%
    04:00 +9°C° 0 mm 1 m/S 545 mmHg 94%
    05:00 +8°C° 0 mm 0 m/S 546 mmHg 93%
    06:00 +9°C° 0 mm 0 m/S 547 mmHg 91%
    07:00 +10°C° 0 mm 0 m/S 548 mmHg 90%
    08:00 +13°C° 0 mm 0 m/S 550 mmHg 81%
    09:00 +16°C° 0 mm 1 m/S 551 mmHg 71%
    10:00 +20°C° 0 mm 1 m/S 553 mmHg 62%
    11:00 +19°C° 0.5 mm 1 m/S 551 mmHg 69%
    12:00 +18°C° 0.5 mm 1 m/S 550 mmHg 76%
    13:00 +16°C° 0.5 mm 1 m/S 549 mmHg 83%
    14:00 +16°C° 1.2 mm 1 m/S 549 mmHg 86%
    15:00 +15°C° 1.2 mm 1 m/S 548 mmHg 89%
    16:00 +14°C° 1.2 mm 0 m/S 547 mmHg 92%
    17:00 +13°C° 0.5 mm 0 m/S 547 mmHg 94%
    18:00 +12°C° 0.5 mm 0 m/S 547 mmHg 95%
    19:00 +11°C° 0.5 mm 0 m/S 547 mmHg 97%
    20:00 +11°C° 0.2 mm 0 m/S 548 mmHg 97%
    21:00 +11°C° 0.2 mm 0 m/S 548 mmHg 97%
    22:00 +11°C° 0.2 mm 0 m/S 548 mmHg 97%
    23:00 +10°C° 0.1 mm 0 m/S 548 mmHg 96%

    Morgen, 24 November, Sonntag

    Zeit Temperatur Niederschläge Wind Luftdruck Luftfeuchtigkeit
    00:00 +10°C° 0.1 mm 0 m/S 548 mmHg 96%
    01:00 +10°C° 0.1 mm 0 m/S 547 mmHg 96%
    02:00 +10°C° 0.1 mm 0 m/S 547 mmHg 96%
    03:00 +10°C° 0.1 mm 0 m/S 547 mmHg 95%
    04:00 +9°C° 0.1 mm 0 m/S 546 mmHg 95%
    05:00 +10°C° 0 mm 0 m/S 547 mmHg 94%
    06:00 +10°C° 0 mm 0 m/S 548 mmHg 93%
    07:00 +11°C° 0 mm 0 m/S 549 mmHg 91%
    08:00 +14°C° 0 mm 1 m/S 550 mmHg 83%
    09:00 +15°C° 0 mm 1 m/S 551 mmHg 74%
    10:00 +18°C° 0 mm 1 m/S 552 mmHg 66%
    11:00 +18°C° 0.2 mm 1 m/S 551 mmHg 66%
    12:00 +19°C° 0.2 mm 1 m/S 550 mmHg 67%
    13:00 +19°C° 0.2 mm 1 m/S 549 mmHg 67%
    14:00 +18°C° 0.3 mm 1 m/S 549 mmHg 72%
    15:00 +18°C° 0.3 mm 1 m/S 548 mmHg 77%
    16:00 +16°C° 0.3 mm 1 m/S 548 mmHg 82%
    17:00 +15°C° 0.2 mm 1 m/S 547 mmHg 87%
    18:00 +13°C° 0.2 mm 1 m/S 547 mmHg 92%
    19:00 +11°C° 0.2 mm 0 m/S 547 mmHg 97%
    20:00 +10°C° 0.1 mm 0 m/S 547 mmHg 97%
    21:00 +11°C° 0.1 mm 1 m/S 547 mmHg 97%
    22:00 +10°C° 0.1 mm 1 m/S 547 mmHg 97%
    23:00 +10°C° 0 mm 1 m/S 547 mmHg 96%

    übermorgen, 25 November, Montag

    Zeit Temperatur Niederschläge Wind Luftdruck Luftfeuchtigkeit
    00:00 +10°C° 0 mm 1 m/S 546 mmHg 96%
    01:00 +10°C° 0 mm 1 m/S 546 mmHg 95%
    02:00 +9°C° 0 mm 1 m/S 545 mmHg 95%
    03:00 +9°C° 0 mm 1 m/S 545 mmHg 94%
    04:00 +8°C° 0 mm 1 m/S 545 mmHg 93%
    05:00 +9°C° 0 mm 1 m/S 546 mmHg 92%
    06:00 +10°C° 0 mm 1 m/S 546 mmHg 90%
    07:00 +11°C° 0 mm 1 m/S 547 mmHg 89%
    08:00 +13°C° 0 mm 1 m/S 548 mmHg 82%
    09:00 +15°C° 0 mm 1 m/S 550 mmHg 76%
    10:00 +18°C° 0 mm 1 m/S 551 mmHg 69%
    11:00 +19°C° 0.3 mm 1 m/S 550 mmHg 70%
    12:00 +18°C° 0.3 mm 2 m/S 550 mmHg 70%
    13:00 +18°C° 0.3 mm 2 m/S 549 mmHg 70%
    14:00 +18°C° 0.5 mm 2 m/S 548 mmHg 74%
    15:00 +17°C° 0.5 mm 2 m/S 548 mmHg 78%
    16:00 +16°C° 0.5 mm 2 m/S 547 mmHg 81%
    17:00 +15°C° 0.2 mm 1 m/S 547 mmHg 86%
    18:00 +13°C° 0.2 mm 1 m/S 546 mmHg 91%
    19:00 +11°C° 0.2 mm 1 m/S 546 mmHg 96%
    20:00 +11°C° 0.1 mm 1 m/S 546 mmHg 96%
    21:00 +11°C° 0.1 mm 1 m/S 546 mmHg 96%
    22:00 +10°C° 0.1 mm 1 m/S 547 mmHg 97%
    23:00 +10°C° 0 mm 1 m/S 546 mmHg 96%

    26 November, Dienstag

    Zeit Temperatur Niederschläge Wind Luftdruck Luftfeuchtigkeit
    00:00 +10°C° 0 mm 1 m/S 546 mmHg 96%
    01:00 +10°C° 0 mm 1 m/S 545 mmHg 95%
    02:00 +9°C° 0 mm 1 m/S 545 mmHg 95%
    03:00 +9°C° 0 mm 1 m/S 545 mmHg 95%
    04:00 +9°C° 0 mm 1 m/S 545 mmHg 94%
    05:00 +10°C° 0 mm 1 m/S 546 mmHg 93%
    06:00 +11°C° 0 mm 1 m/S 547 mmHg 92%
    07:00 +11°C° 0 mm 1 m/S 548 mmHg 90%
    08:00 +14°C° 0.1 mm 1 m/S 549 mmHg 83%
    09:00 +16°C° 0.1 mm 2 m/S 550 mmHg 76%
    10:00 +18°C° 0.1 mm 2 m/S 551 mmHg 68%
    11:00 +18°C° 0.5 mm 3 m/S 551 mmHg 69%
    12:00 +18°C° 0.5 mm 3 m/S 550 mmHg 70%
    13:00 +18°C° 0.5 mm 4 m/S 550 mmHg 70%
    14:00 +18°C° 0.6 mm 3 m/S 549 mmHg 72%
    15:00 +17°C° 0.6 mm 3 m/S 548 mmHg 74%
    16:00 +17°C° 0.6 mm 2 m/S 548 mmHg 77%
    17:00 +15°C° 0.2 mm 2 m/S 547 mmHg 82%
    18:00 +13°C° 0.2 mm 2 m/S 546 mmHg 88%
    19:00 +11°C° 0.2 mm 1 m/S 546 mmHg 94%
    20:00 +11°C° 0.1 mm 1 m/S 546 mmHg 95%
    21:00 +11°C° 0.1 mm 1 m/S 547 mmHg 95%
    22:00 +11°C° 0.1 mm 1 m/S 547 mmHg 96%
    23:00 +10°C° 0 mm 1 m/S 547 mmHg 95%

    27 November, Mittwoch

    Zeit Temperatur Niederschläge Wind Luftdruck Luftfeuchtigkeit
    00:00 +10°C° 0 mm 1 m/S 546 mmHg 94%
    01:00 +10°C° 0 mm 1 m/S 546 mmHg 94%
    02:00 +10°C° 0 mm 1 m/S 546 mmHg 93%
    03:00 +10°C° 0 mm 1 m/S 546 mmHg 93%
    04:00 +9°C° 0 mm 1 m/S 545 mmHg 92%
    05:00 +10°C° 0 mm 1 m/S 546 mmHg 90%
    06:00 +11°C° 0 mm 1 m/S 547 mmHg 88%
    07:00 +12°C° 0 mm 1 m/S 548 mmHg 85%
    08:00 +14°C° 0 mm 2 m/S 549 mmHg 77%
    09:00 +16°C° 0 mm 2 m/S 551 mmHg 69%
    10:00 +19°C° 0 mm 3 m/S 552 mmHg 60%
    11:00 +19°C° 0.2 mm 3 m/S 551 mmHg 60%
    12:00 +19°C° 0.2 mm 4 m/S 551 mmHg 60%
    13:00 +20°C° 0.2 mm 4 m/S 550 mmHg 59%
    14:00 +19°C° 0.3 mm 3 m/S 550 mmHg 64%
    15:00 +18°C° 0.3 mm 3 m/S 549 mmHg 68%
    16:00 +17°C° 0.3 mm 3 m/S 548 mmHg 72%
    17:00 +15°C° 0.2 mm 2 m/S 547 mmHg 79%
    18:00 +13°C° 0.2 mm 2 m/S 547 mmHg 87%
    19:00 +11°C° 0.2 mm 1 m/S 546 mmHg 94%
    20:00 +11°C° 0 mm 1 m/S 547 mmHg 94%
    21:00 +11°C° 0 mm 1 m/S 547 mmHg 94%
    22:00 +11°C° 0 mm 1 m/S 547 mmHg 94%
    23:00 +11°C° 0 mm 1 m/S 547 mmHg 94%

    28 November, Donnerstag

    Zeit Temperatur Niederschläge Wind Luftdruck Luftfeuchtigkeit
    00:00 +10°C° 0 mm 1 m/S 547 mmHg 93%
    01:00 +10°C° 0 mm 1 m/S 546 mmHg 93%
    02:00 +10°C° 0 mm 1 m/S 546 mmHg 92%
    03:00 +10°C° 0 mm 1 m/S 545 mmHg 91%
    04:00 +9°C° 0 mm 1 m/S 545 mmHg 91%
    05:00 +10°C° 0 mm 1 m/S 546 mmHg 88%
    06:00 +11°C° 0 mm 1 m/S 547 mmHg 85%
    07:00 +12°C° 0 mm 1 m/S 548 mmHg 82%
    08:00 +14°C° 0 mm 1 m/S 549 mmHg 72%
    09:00 +18°C° 0 mm 1 m/S 550 mmHg 63%
    10:00 +20°C° 0 mm 1 m/S 552 mmHg 54%
    11:00 +19°C° 0.2 mm 2 m/S 551 mmHg 54%
    12:00 +20°C° 0.2 mm 2 m/S 551 mmHg 55%
    13:00 +20°C° 0.2 mm 3 m/S 550 mmHg 55%
    14:00 +19°C° 0.3 mm 2 m/S 549 mmHg 60%
    15:00 +18°C° 0.3 mm 2 m/S 549 mmHg 65%
    16:00 +17°C° 0.3 mm 2 m/S 548 mmHg 70%
    17:00 +15°C° 0.4 mm 2 m/S 547 mmHg 78%
    18:00 +13°C° 0.4 mm 1 m/S 546 mmHg 86%
    19:00 +11°C° 0.4 mm 1 m/S 546 mmHg 94%
    20:00 +10°C° 0.1 mm 1 m/S 546 mmHg 94%
    21:00 +10°C° 0.1 mm 1 m/S 546 mmHg 94%
    22:00 +10°C° 0.1 mm 1 m/S 546 mmHg 94%
    23:00 +10°C° 0 mm 1 m/S 546 mmHg 93%
    Mehr zeigen